When you browse on this site, cookies collect data to enhance your experience and personalize the content and advertising you see.
Visit our Privacy Policy to learn more. By continuing to use the site, you agree to this use of cookies and data.
  • In Hungary
  • List of Countries
  • For 7 days
  • Water Temperature
  • Weather Map
  • News
  • Weather Widgets
  • user-avatar
    Login

    Hourly Weather Vishnyanskiy

    Today, 22 October, Tuesday

    Time Temperature Precipitation Wind Pressure Humidity
    00:00 +14°C° 0 mm 2 mps 759 mmHg 65%
    01:00 +13°C° 0 mm 2 mps 759 mmHg 66%
    02:00 +13°C° 0 mm 1 mps 759 mmHg 67%
    03:00 +12°C° 0 mm 1 mps 759 mmHg 69%
    04:00 +12°C° 0 mm 1 mps 759 mmHg 70%
    05:00 +12°C° 0 mm 1 mps 759 mmHg 71%
    06:00 +12°C° 0 mm 1 mps 759 mmHg 71%
    07:00 +13°C° 0 mm 1 mps 759 mmHg 67%
    08:00 +14°C° 0 mm 1 mps 759 mmHg 63%
    09:00 +14°C° 0 mm 1 mps 759 mmHg 60%
    10:00 +16°C° 0 mm 1 mps 759 mmHg 54%
    11:00 +19°C° 0 mm 1 mps 759 mmHg 49%
    12:00 +20°C° 0 mm 1 mps 760 mmHg 44%
    13:00 +21°C° 0 mm 1 mps 759 mmHg 43%
    14:00 +21°C° 0 mm 1 mps 759 mmHg 41%
    15:00 +20°C° 0 mm 0 mps 759 mmHg 39%
    16:00 +19°C° 0 mm 0 mps 759 mmHg 42%
    17:00 +18°C° 0 mm 0 mps 759 mmHg 45%
    18:00 +17°C° 0 mm 0 mps 758 mmHg 47%
    19:00 +17°C° 0 mm 0 mps 759 mmHg 49%
    20:00 +16°C° 0 mm 0 mps 759 mmHg 51%
    21:00 +16°C° 0 mm 0 mps 759 mmHg 52%
    22:00 +15°C° 0 mm 0 mps 759 mmHg 54%
    23:00 +15°C° 0 mm 0 mps 758 mmHg 55%

    Tomorrow, 23 October, Wednesday

    Time Temperature Precipitation Wind Pressure Humidity
    00:00 +16°C° 0 mm 1 mps 758 mmHg 57%
    01:00 +15°C° 0 mm 1 mps 758 mmHg 58%
    02:00 +15°C° 0 mm 1 mps 758 mmHg 60%
    03:00 +15°C° 0 mm 1 mps 758 mmHg 61%
    04:00 +14°C° 0 mm 1 mps 758 mmHg 63%
    05:00 +14°C° 0 mm 1 mps 758 mmHg 64%
    06:00 +14°C° 0 mm 1 mps 758 mmHg 66%
    07:00 +14°C° 0 mm 1 mps 758 mmHg 63%
    08:00 +15°C° 0 mm 1 mps 758 mmHg 61%
    09:00 +16°C° 0 mm 1 mps 759 mmHg 58%
    10:00 +18°C° 0 mm 1 mps 758 mmHg 54%
    11:00 +20°C° 0 mm 1 mps 758 mmHg 50%
    12:00 +21°C° 0 mm 1 mps 758 mmHg 45%
    13:00 +21°C° 0 mm 1 mps 758 mmHg 45%
    14:00 +22°C° 0 mm 1 mps 758 mmHg 44%
    15:00 +22°C° 0 mm 1 mps 758 mmHg 43%
    16:00 +21°C° 0 mm 1 mps 758 mmHg 46%
    17:00 +18°C° 0 mm 0 mps 757 mmHg 49%
    18:00 +17°C° 0 mm 0 mps 757 mmHg 53%
    19:00 +17°C° 0 mm 0 mps 757 mmHg 55%
    20:00 +16°C° 0 mm 0 mps 757 mmHg 56%
    21:00 +16°C° 0 mm 0 mps 757 mmHg 58%
    22:00 +15°C° 0 mm 0 mps 757 mmHg 60%
    23:00 +15°C° 0 mm 0 mps 757 mmHg 61%

    Day after tomorrow, 24 October, Thursday

    Time Temperature Precipitation Wind Pressure Humidity
    00:00 +14°C° 0 mm 0 mps 757 mmHg 63%
    01:00 +14°C° 0 mm 0 mps 757 mmHg 64%
    02:00 +14°C° 0 mm 0 mps 757 mmHg 66%
    03:00 +13°C° 0 mm 0 mps 757 mmHg 67%
    04:00 +13°C° 0 mm 0 mps 757 mmHg 68%
    05:00 +13°C° 0 mm 0 mps 757 mmHg 69%
    06:00 +12°C° 0 mm 0 mps 757 mmHg 70%
    07:00 +14°C° 0 mm 1 mps 757 mmHg 66%
    08:00 +15°C° 0 mm 1 mps 757 mmHg 63%
    09:00 +16°C° 0 mm 1 mps 757 mmHg 59%
    10:00 +18°C° 0 mm 1 mps 757 mmHg 55%
    11:00 +18°C° 0 mm 2 mps 756 mmHg 50%
    12:00 +20°C° 0 mm 2 mps 756 mmHg 46%
    13:00 +20°C° 0 mm 2 mps 756 mmHg 45%
    14:00 +20°C° 0 mm 2 mps 756 mmHg 43%
    15:00 +21°C° 0 mm 2 mps 755 mmHg 42%
    16:00 +20°C° 0 mm 2 mps 755 mmHg 46%
    17:00 +19°C° 0 mm 1 mps 755 mmHg 49%
    18:00 +18°C° 0 mm 1 mps 755 mmHg 53%
    19:00 +18°C° 0 mm 1 mps 755 mmHg 55%
    20:00 +16°C° 0 mm 1 mps 755 mmHg 56%
    21:00 +16°C° 0 mm 1 mps 755 mmHg 58%
    22:00 +15°C° 0 mm 1 mps 755 mmHg 60%
    23:00 +14°C° 0 mm 0 mps 755 mmHg 61%

    25 October, Friday

    Time Temperature Precipitation Wind Pressure Humidity
    00:00 +13°C° 0 mm 0 mps 754 mmHg 63%
    01:00 +13°C° 0 mm 0 mps 754 mmHg 64%
    02:00 +13°C° 0 mm 0 mps 754 mmHg 65%
    03:00 +13°C° 0 mm 0 mps 754 mmHg 66%
    04:00 +12°C° 0 mm 0 mps 754 mmHg 67%
    05:00 +12°C° 0 mm 0 mps 754 mmHg 67%
    06:00 +12°C° 0 mm 0 mps 754 mmHg 68%
    07:00 +13°C° 0 mm 1 mps 754 mmHg 64%
    08:00 +14°C° 0 mm 1 mps 755 mmHg 60%
    09:00 +15°C° 0 mm 1 mps 755 mmHg 55%
    10:00 +16°C° 0 mm 2 mps 755 mmHg 51%
    11:00 +18°C° 0 mm 2 mps 755 mmHg 46%
    12:00 +19°C° 0 mm 2 mps 755 mmHg 41%
    13:00 +19°C° 0 mm 2 mps 755 mmHg 40%
    14:00 +20°C° 0 mm 2 mps 755 mmHg 39%
    15:00 +20°C° 0 mm 2 mps 754 mmHg 37%
    16:00 +19°C° 0 mm 2 mps 754 mmHg 40%
    17:00 +18°C° 0 mm 2 mps 755 mmHg 42%
    18:00 +17°C° 0 mm 2 mps 755 mmHg 45%
    19:00 +16°C° 0 mm 2 mps 755 mmHg 47%
    20:00 +15°C° 0 mm 2 mps 755 mmHg 49%
    21:00 +15°C° 0 mm 2 mps 755 mmHg 52%
    22:00 +14°C° 0 mm 2 mps 755 mmHg 55%
    23:00 +14°C° 0 mm 2 mps 755 mmHg 59%

    26 October, Saturday

    Time Temperature Precipitation Wind Pressure Humidity
    00:00 +13°C° 0 mm 2 mps 755 mmHg 63%
    01:00 +12°C° 0 mm 2 mps 755 mmHg 63%
    02:00 +12°C° 0 mm 2 mps 755 mmHg 64%
    03:00 +10°C° 0 mm 3 mps 755 mmHg 65%
    04:00 +10°C° 0 mm 3 mps 756 mmHg 65%
    05:00 +10°C° 0 mm 3 mps 756 mmHg 65%
    06:00 +9°C° 0 mm 3 mps 756 mmHg 65%
    07:00 +10°C° 0 mm 3 mps 756 mmHg 60%
    08:00 +11°C° 0 mm 3 mps 756 mmHg 56%
    09:00 +12°C° 0 mm 3 mps 756 mmHg 52%
    10:00 +14°C° 0 mm 3 mps 756 mmHg 48%
    11:00 +16°C° 0 mm 3 mps 756 mmHg 44%
    12:00 +18°C° 0 mm 3 mps 756 mmHg 40%
    13:00 +18°C° 0 mm 3 mps 756 mmHg 40%
    14:00 +19°C° 0 mm 3 mps 755 mmHg 40%
    15:00 +19°C° 0 mm 3 mps 755 mmHg 41%
    16:00 +18°C° 0 mm 3 mps 755 mmHg 45%
    17:00 +17°C° 0 mm 2 mps 755 mmHg 49%
    18:00 +16°C° 0 mm 2 mps 755 mmHg 54%
    19:00 +15°C° 0 mm 2 mps 755 mmHg 55%
    20:00 +15°C° 0 mm 2 mps 755 mmHg 56%
    21:00 +13°C° 0 mm 3 mps 755 mmHg 58%
    22:00 +13°C° 0 mm 2 mps 755 mmHg 63%
    23:00 +13°C° 0 mm 2 mps 754 mmHg 69%

    27 October, Sunday

    Time Temperature Precipitation Wind Pressure Humidity
    00:00 +13°C° 0 mm 2 mps 754 mmHg 74%
    01:00 +12°C° 0 mm 2 mps 754 mmHg 78%
    02:00 +12°C° 0 mm 2 mps 754 mmHg 82%
    03:00 +12°C° 0 mm 2 mps 754 mmHg 86%
    04:00 +12°C° 0 mm 2 mps 754 mmHg 87%
    05:00 +10°C° 0 mm 2 mps 754 mmHg 88%
    06:00 +11°C° 0 mm 1 mps 754 mmHg 89%
    07:00 +12°C° 0 mm 1 mps 754 mmHg 85%
    08:00 +13°C° 0 mm 2 mps 754 mmHg 81%
    09:00 +14°C° 0 mm 2 mps 754 mmHg 77%
    10:00 +15°C° 0 mm 2 mps 754 mmHg 71%
    11:00 +17°C° 0 mm 2 mps 754 mmHg 66%
    12:00 +18°C° 0 mm 2 mps 754 mmHg 60%
    13:00 +19°C° 0 mm 2 mps 753 mmHg 56%
    14:00 +19°C° 0 mm 2 mps 753 mmHg 53%
    15:00 +19°C° 0 mm 2 mps 753 mmHg 50%
    16:00 +18°C° 0 mm 2 mps 753 mmHg 54%
    17:00 +18°C° 0 mm 1 mps 752 mmHg 58%
    18:00 +16°C° 0 mm 1 mps 752 mmHg 62%
    19:00 +16°C° 0 mm 1 mps 752 mmHg 65%
    20:00 +15°C° 0 mm 1 mps 752 mmHg 69%
    21:00 +14°C° 0 mm 2 mps 752 mmHg 72%
    22:00 +14°C° 0 mm 2 mps 752 mmHg 74%
    23:00 +13°C° 0 mm 2 mps 752 mmHg 76%

    28 October, Monday

    Time Temperature Precipitation Wind Pressure Humidity
    00:00 +13°C° 0 mm 2 mps 752 mmHg 78%
    01:00 +13°C° 0 mm 2 mps 752 mmHg 77%
    02:00 +12°C° 0 mm 2 mps 752 mmHg 77%
    03:00 +12°C° 0 mm 2 mps 751 mmHg 76%
    04:00 +12°C° 0 mm 2 mps 751 mmHg 76%
    05:00 +12°C° 0 mm 2 mps 751 mmHg 77%
    06:00 +12°C° 0 mm 2 mps 751 mmHg 77%
    07:00 +11°C° 0 mm 3 mps 751 mmHg 74%
    08:00 +12°C° 0 mm 3 mps 751 mmHg 71%
    09:00 +13°C° 0 mm 3 mps 751 mmHg 68%
    10:00 +15°C° 0 mm 4 mps 751 mmHg 61%
    11:00 +17°C° 0 mm 5 mps 751 mmHg 55%
    12:00 +19°C° 0 mm 5 mps 751 mmHg 49%
    13:00 +20°C° 0 mm 5 mps 751 mmHg 48%
    14:00 +20°C° 0 mm 5 mps 751 mmHg 46%
    15:00 +20°C° 0 mm 5 mps 751 mmHg 45%
    16:00 +19°C° 0 mm 5 mps 751 mmHg 50%
    17:00 +16°C° 0 mm 5 mps 751 mmHg 56%
    18:00 +15°C° 0 mm 4 mps 750 mmHg 62%
    19:00 +14°C° 0 mm 4 mps 751 mmHg 65%
    20:00 +14°C° 0 mm 4 mps 751 mmHg 68%
    21:00 +13°C° 0 mm 3 mps 751 mmHg 72%
    22:00 +13°C° 0 mm 3 mps 751 mmHg 74%
    23:00 +13°C° 0 mm 3 mps 751 mmHg 76%
    Show more